Location: Buckeye Ditch
(40.9104°N, 122.9517°W)
Time: 13:06:39
(UTC+00:00)

Explorer 7 - Pass Details

Date: 20 May 2025
Orbit: 445 x 571 km, 50.3° (Epoch: 22 June)

Event Time Altitude Azimuth Distance (km) Brightness Sun altitude
Rises 11:44:24 0° 268° (W) 2,513 - -11.1°
Exits shadow 11:46:13 - 276° (W) 1,833 9.1 -10.8°
Reaches altitude 10° 11:46:43 10° 280° (W) 1,659 8.9 -10.7°
Maximum altitude 11:50:02 29° 342° (NNW) 932 8.2 -10.3°
Drops below altitude 10° 11:53:30 10° 44° (NE) 1,732 11.0 -9.7°
Sets 11:55:58 0° 56° (NE) 2,647 12.7 -9.4°
